NDF4TP EDDH-LOWI

Flight info

Callsign NDF4TP
Flight time N/A
Altitude 31000
Route AMLUH2C/05 AMLUH M852 DENIX DCT ZUCKA DCT GALMA M736 TABAT/N0457F370 M736 AKOSI/N0445F310 M736 RDG/N0443F300 M736 DOSEL/N0446F310 M736 TULSI TULSI3A
Aircraft A321/M-SDE3FGHIRWY/LB1

Departure

Time 2026-05-07 10:13
Airport Hamburg Helmut Schmidt Airport (EDDH)

Arrival

Time N/A
Airport Innsbruck Airport (LOWI)
Time Latitude Longitude Altitude Speed Heading
2026-05-07 09:45 53.63112 10.00369 48 ft 0 kts 87°
2026-05-07 10:02 53.63112 10.00364 47 ft 3 kts 87°
2026-05-07 10:02 53.63111 10.00319 45 ft 4 kts 94°
2026-05-07 10:03 53.63116 10.00276 48 ft 4 kts 123°
2026-05-07 10:03 53.63129 10.00257 47 ft 0 kts 174°
2026-05-07 10:05 53.63128 10.00257 48 ft 1 kts 174°
2026-05-07 10:05 53.63099 10.00261 48 ft 8 kts 175°
2026-05-07 10:05 53.63036 10.00228 48 ft 12 kts 212°
2026-05-07 10:05 53.62964 10.00150 46 ft 14 kts 213°
2026-05-07 10:06 53.62873 10.00047 47 ft 17 kts 219°
2026-05-07 10:06 53.62772 9.99932 44 ft 19 kts 208°
2026-05-07 10:06 53.62654 9.99810 46 ft 20 kts 230°
2026-05-07 10:06 53.62618 9.99583 47 ft 21 kts 259°
2026-05-07 10:07 53.62591 9.99339 47 ft 22 kts 259°
2026-05-07 10:07 53.62571 9.99169 47 ft 23 kts 259°
2026-05-07 10:07 53.62530 9.98811 47 ft 24 kts 259°
2026-05-07 10:07 53.62498 9.98528 47 ft 25 kts 259°
2026-05-07 10:08 53.62464 9.98234 44 ft 26 kts 256°
2026-05-07 10:08 53.62410 9.98052 47 ft 27 kts 234°
2026-05-07 10:08 53.62289 9.97806 45 ft 27 kts 230°
2026-05-07 10:08 53.62198 9.97621 47 ft 17 kts 232°
2026-05-07 10:09 53.62192 9.97440 45 ft 12 kts 299°
2026-05-07 10:09 53.62204 9.97413 44 ft 0 kts 311°
2026-05-07 10:10 53.62207 9.97407 41 ft 1 kts 312°
2026-05-07 10:10 53.62213 9.97396 43 ft 4 kts 314°
2026-05-07 10:11 53.62254 9.97353 41 ft 10 kts 338°
2026-05-07 10:11 53.62318 9.97368 38 ft 6 kts 40°
2026-05-07 10:11 53.62323 9.97378 40 ft 0 kts 48°
2026-05-07 10:12 53.62347 9.97424 39 ft 30 kts 49°
2026-05-07 10:12 53.62657 9.98052 42 ft 106 kts 50°
2026-05-07 10:13 53.63250 9.99257 223 ft 145 kts 52°
2026-05-07 10:13 53.63885 10.00538 1074 ft 142 kts 54°
2026-05-07 10:13 53.64514 10.01822 1893 ft 142 kts 52°
2026-05-07 10:13 53.65167 10.03159 2339 ft 157 kts 51°
2026-05-07 10:14 53.65909 10.04681 2692 ft 179 kts 52°
2026-05-07 10:14 53.66743 10.06392 3013 ft 198 kts 53°
2026-05-07 10:14 53.67645 10.08230 3676 ft 203 kts 53°
2026-05-07 10:14 53.68548 10.10071 4550 ft 204 kts 53°
2026-05-07 10:15 53.69460 10.11932 5361 ft 207 kts 52°
2026-05-07 10:15 53.70202 10.14010 6087 ft 210 kts 71°
2026-05-07 10:15 53.70343 10.16491 6667 ft 222 kts 96°
2026-05-07 10:15 53.69666 10.18963 6996 ft 248 kts 130°
2026-05-07 10:16 53.68149 10.20460 7550 ft 263 kts 159°
2026-05-07 10:16 53.66326 10.21362 8100 ft 279 kts 162°
2026-05-07 10:16 53.64438 10.22224 8922 ft 285 kts 163°
2026-05-07 10:16 53.62499 10.23088 9783 ft 290 kts 164°
2026-05-07 10:17 53.60529 10.23970 10455 ft 301 kts 165°
2026-05-07 10:17 53.58420 10.24919 10744 ft 324 kts 165°
2026-05-07 10:17 53.56162 10.25943 10968 ft 347 kts 165°
2026-05-07 10:17 53.53774 10.27035 11340 ft 363 kts 164°
2026-05-07 10:18 53.51341 10.28153 11988 ft 370 kts 164°
2026-05-07 10:18 53.48840 10.29305 12741 ft 374 kts 165°
2026-05-07 10:18 53.46319 10.30463 13515 ft 378 kts 165°
2026-05-07 10:18 53.43761 10.31636 14188 ft 383 kts 165°
2026-05-07 10:19 53.41173 10.32821 14863 ft 387 kts 165°
2026-05-07 10:19 53.38560 10.34018 15589 ft 390 kts 165°
2026-05-07 10:19 53.35932 10.35222 16335 ft 393 kts 165°
2026-05-07 10:19 53.33289 10.36429 17080 ft 395 kts 165°
2026-05-07 10:20 53.30623 10.37644 17819 ft 399 kts 166°
2026-05-07 10:20 53.27932 10.38869 18505 ft 402 kts 166°
2026-05-07 10:20 53.25222 10.40101 19134 ft 405 kts 165°
2026-05-07 10:20 53.22493 10.41343 19749 ft 408 kts 166°
2026-05-07 10:21 53.19739 10.42596 20370 ft 411 kts 166°
2026-05-07 10:21 53.16966 10.43853 20971 ft 414 kts 166°
2026-05-07 10:21 53.14170 10.45115 21586 ft 417 kts 166°
2026-05-07 10:21 53.11349 10.46307 22150 ft 420 kts 168°
2026-05-07 10:22 53.08484 10.47319 22722 ft 422 kts 170°
2026-05-07 10:22 53.05620 10.48195 23286 ft 425 kts 172°
2026-05-07 10:22 53.02693 10.49022 23780 ft 428 kts 172°
2026-05-07 10:22 52.99747 10.49845 24220 ft 431 kts 172°
2026-05-07 10:23 52.96781 10.50692 24674 ft 434 kts 171°
2026-05-07 10:23 52.93801 10.51577 25105 ft 437 kts 171°
2026-05-07 10:23 52.90802 10.52499 25553 ft 440 kts 171°
2026-05-07 10:23 52.87784 10.53446 26004 ft 442 kts 170°
2026-05-07 10:24 52.84756 10.54401 26425 ft 445 kts 171°
2026-05-07 10:24 52.81703 10.55360 26875 ft 447 kts 171°
2026-05-07 10:24 52.78633 10.56313 27290 ft 450 kts 171°
2026-05-07 10:24 52.75549 10.57260 27718 ft 453 kts 171°
2026-05-07 10:25 52.72438 10.58216 28167 ft 455 kts 170°
2026-05-07 10:25 52.69315 10.59177 28662 ft 455 kts 170°
2026-05-07 10:25 52.66216 10.60127 29325 ft 452 kts 171°
2026-05-07 10:25 52.63135 10.61069 30035 ft 448 kts 170°
2026-05-07 10:26 52.60161 10.61974 30536 ft 447 kts 171°